Year,Month,Day,Hour,Minute,Value (Times are PST for temperature in C)
2019,05,27,00,00,12.70
2019,05,27,00,01,12.70
2019,05,27,00,02,12.70
2019,05,27,00,03,12.70
2019,05,27,00,04,12.70
2019,05,27,00,05,12.60
2019,05,27,00,06,12.60
2019,05,27,00,07,12.60
2019,05,27,00,08,12.60
2019,05,27,00,09,12.60
2019,05,27,00,10,12.60
2019,05,27,00,11,12.60
2019,05,27,00,12,12.60
2019,05,27,00,13,12.50
2019,05,27,00,14,12.50
2019,05,27,00,15,12.50
2019,05,27,00,16,12.50
2019,05,27,00,17,12.40
2019,05,27,00,18,12.40
2019,05,27,00,19,12.40
2019,05,27,00,20,12.40
2019,05,27,00,21,12.40
2019,05,27,00,22,12.40
2019,05,27,00,23,12.40
2019,05,27,00,24,12.40
2019,05,27,00,25,12.40
2019,05,27,00,26,12.40
2019,05,27,00,27,12.30
2019,05,27,00,28,12.30
2019,05,27,00,29,12.30
2019,05,27,00,30,12.30
2019,05,27,00,31,12.30
2019,05,27,00,32,12.30
2019,05,27,00,33,12.30
2019,05,27,00,34,12.30
2019,05,27,00,35,12.30
2019,05,27,00,36,12.30
2019,05,27,00,37,12.30
2019,05,27,00,38,12.30
2019,05,27,00,39,12.30
2019,05,27,00,40,12.30
2019,05,27,00,41,12.30
2019,05,27,00,42,12.30
2019,05,27,00,43,12.30
2019,05,27,00,44,12.30
2019,05,27,00,45,12.30
2019,05,27,00,46,12.30
2019,05,27,00,47,12.30
2019,05,27,00,48,12.30
2019,05,27,00,49,12.30
2019,05,27,00,50,12.30
2019,05,27,00,51,12.30
2019,05,27,00,52,12.20
2019,05,27,00,53,12.20
2019,05,27,00,54,12.20
2019,05,27,00,55,12.20
2019,05,27,00,56,12.20
2019,05,27,00,57,12.20
2019,05,27,00,58,12.20
2019,05,27,00,59,12.20
2019,05,27,01,00,12.20
2019,05,27,01,01,12.20
2019,05,27,01,02,12.20
2019,05,27,01,03,12.20
2019,05,27,01,04,12.20
2019,05,27,01,05,12.20
2019,05,27,01,06,12.20
2019,05,27,01,07,12.20
2019,05,27,01,08,12.20
2019,05,27,01,09,12.10
2019,05,27,01,10,12.20
2019,05,27,01,11,12.10
2019,05,27,01,12,12.10
2019,05,27,01,13,12.10
2019,05,27,01,14,12.10
2019,05,27,01,15,12.10
2019,05,27,01,16,12.20
2019,05,27,01,17,12.20
2019,05,27,01,18,12.20
2019,05,27,01,19,12.20
2019,05,27,01,20,12.20
2019,05,27,01,21,12.20
2019,05,27,01,22,12.30
2019,05,27,01,23,12.30
2019,05,27,01,24,12.30
2019,05,27,01,25,12.30
2019,05,27,01,26,12.40
2019,05,27,01,27,12.40
2019,05,27,01,28,12.50
2019,05,27,01,29,12.50
2019,05,27,01,30,12.60
2019,05,27,01,31,12.60
2019,05,27,01,32,12.60
2019,05,27,01,33,12.60
2019,05,27,01,34,12.60
2019,05,27,01,35,12.60
2019,05,27,01,36,12.60
2019,05,27,01,37,12.60
2019,05,27,01,38,12.60
2019,05,27,01,39,12.60
2019,05,27,01,40,12.60
2019,05,27,01,41,12.60
2019,05,27,01,42,12.60
2019,05,27,01,43,12.60
2019,05,27,01,44,12.60
2019,05,27,01,45,12.60
2019,05,27,01,46,12.60
2019,05,27,01,47,12.60
2019,05,27,01,48,12.60
2019,05,27,01,49,12.60
2019,05,27,01,50,12.60
2019,05,27,01,51,12.50
2019,05,27,01,52,12.50
2019,05,27,01,53,12.50
2019,05,27,01,54,12.50
2019,05,27,01,55,12.50
2019,05,27,01,56,12.50
2019,05,27,01,57,12.40
2019,05,27,01,58,12.40
2019,05,27,01,59,12.40
2019,05,27,02,00,12.40
2019,05,27,02,01,12.40
2019,05,27,02,02,12.40
2019,05,27,02,03,12.40
2019,05,27,02,04,12.40
2019,05,27,02,05,12.40
2019,05,27,02,06,12.40
2019,05,27,02,07,12.40
2019,05,27,02,08,12.40
2019,05,27,02,09,12.40
2019,05,27,02,10,12.40
2019,05,27,02,11,12.40
2019,05,27,02,12,12.40
2019,05,27,02,13,12.40
2019,05,27,02,14,12.30
2019,05,27,02,15,12.30
2019,05,27,02,16,12.30
2019,05,27,02,17,12.30
2019,05,27,02,18,12.30
2019,05,27,02,19,12.20
2019,05,27,02,20,12.20
2019,05,27,02,21,12.20
2019,05,27,02,22,12.20
2019,05,27,02,23,12.10
2019,05,27,02,24,12.10
2019,05,27,02,25,12.10
2019,05,27,02,26,12.10
2019,05,27,02,27,12.00
2019,05,27,02,28,12.00
2019,05,27,02,29,12.00
2019,05,27,02,30,11.90
2019,05,27,02,31,11.90
2019,05,27,02,32,11.90
2019,05,27,02,33,11.80
2019,05,27,02,34,11.80
2019,05,27,02,35,11.80
2019,05,27,02,36,11.70
2019,05,27,02,37,11.70
2019,05,27,02,38,11.70
2019,05,27,02,39,11.70
2019,05,27,02,40,11.70
2019,05,27,02,41,11.70
2019,05,27,02,42,11.70
2019,05,27,02,43,11.70
2019,05,27,02,44,11.70
2019,05,27,02,45,11.70
2019,05,27,02,46,11.70
2019,05,27,02,47,11.70
2019,05,27,02,48,11.60
2019,05,27,02,49,11.60
2019,05,27,02,50,11.60
2019,05,27,02,51,11.60
2019,05,27,02,52,11.60
2019,05,27,02,53,11.60
2019,05,27,02,54,11.50
2019,05,27,02,55,11.50
2019,05,27,02,56,11.50
2019,05,27,02,57,11.40
2019,05,27,02,58,11.40
2019,05,27,02,59,11.40
2019,05,27,03,00,11.40
2019,05,27,03,01,11.40
2019,05,27,03,02,11.40
2019,05,27,03,03,11.30
2019,05,27,03,04,11.30
2019,05,27,03,05,11.30
2019,05,27,03,06,11.30
2019,05,27,03,07,11.30
2019,05,27,03,08,11.30
2019,05,27,03,09,11.30
2019,05,27,03,10,11.30
2019,05,27,03,11,11.30
2019,05,27,03,12,11.30
2019,05,27,03,13,11.30
2019,05,27,03,14,11.30
2019,05,27,03,15,11.30
2019,05,27,03,16,11.30
2019,05,27,03,17,11.20
2019,05,27,03,18,11.20
2019,05,27,03,19,11.20
2019,05,27,03,20,11.20
2019,05,27,03,21,11.20
2019,05,27,03,22,11.20
2019,05,27,03,23,11.20
2019,05,27,03,24,11.10
2019,05,27,03,25,11.10
2019,05,27,03,26,11.10
2019,05,27,03,27,11.10
2019,05,27,03,28,11.10
2019,05,27,03,29,11.00
2019,05,27,03,30,11.00
2019,05,27,03,31,11.00
2019,05,27,03,32,10.90
2019,05,27,03,33,10.90
2019,05,27,03,34,10.90
2019,05,27,03,35,10.90
2019,05,27,03,36,10.90
2019,05,27,03,37,10.90
2019,05,27,03,38,10.90
2019,05,27,03,39,10.90
2019,05,27,03,40,10.90
2019,05,27,03,41,10.90
2019,05,27,03,42,10.90
2019,05,27,03,43,10.90
2019,05,27,03,44,10.90
2019,05,27,03,45,10.90
2019,05,27,03,46,10.90
2019,05,27,03,47,10.90
2019,05,27,03,48,10.90
2019,05,27,03,49,10.90
2019,05,27,03,50,10.80
2019,05,27,03,51,10.80
2019,05,27,03,52,10.80
2019,05,27,03,53,10.80
2019,05,27,03,54,10.80
2019,05,27,03,55,10.80
2019,05,27,03,56,10.80
2019,05,27,03,57,10.80
2019,05,27,03,58,10.80
2019,05,27,03,59,10.80
2019,05,27,04,00,10.80
2019,05,27,04,01,10.80
2019,05,27,04,02,10.80
2019,05,27,04,03,10.80
2019,05,27,04,04,10.80
2019,05,27,04,05,10.80
2019,05,27,04,06,10.80
2019,05,27,04,07,10.80
2019,05,27,04,08,10.80
2019,05,27,04,09,10.80
2019,05,27,04,10,10.80
2019,05,27,04,11,10.80
2019,05,27,04,12,10.80
2019,05,27,04,13,10.80
2019,05,27,04,14,10.80
2019,05,27,04,15,10.80
2019,05,27,04,16,10.80
2019,05,27,04,17,10.80
2019,05,27,04,18,10.80
2019,05,27,04,19,10.90
2019,05,27,04,20,10.90
2019,05,27,04,21,10.90
2019,05,27,04,22,10.90
2019,05,27,04,23,10.90
2019,05,27,04,24,10.90
2019,05,27,04,25,10.80
2019,05,27,04,26,10.90
2019,05,27,04,27,10.90
2019,05,27,04,28,10.90
2019,05,27,04,29,10.90
2019,05,27,04,30,10.90
2019,05,27,04,31,10.90
2019,05,27,04,32,10.90
2019,05,27,04,33,10.90
2019,05,27,04,34,10.90
2019,05,27,04,35,10.90
2019,05,27,04,36,10.90
2019,05,27,04,37,10.90
2019,05,27,04,38,10.90
2019,05,27,04,39,10.90
2019,05,27,04,40,10.90
2019,05,27,04,41,10.80
2019,05,27,04,42,10.90
2019,05,27,04,43,10.90
2019,05,27,04,44,10.90
2019,05,27,04,45,10.90
2019,05,27,04,46,10.90
2019,05,27,04,47,10.90
2019,05,27,04,48,10.90
2019,05,27,04,49,10.90
2019,05,27,04,50,11.00
2019,05,27,04,51,11.00
2019,05,27,04,52,11.00
2019,05,27,04,53,11.00
2019,05,27,04,54,11.00
2019,05,27,04,55,11.00
2019,05,27,04,56,11.00
2019,05,27,04,57,11.00
2019,05,27,04,58,11.00
2019,05,27,04,59,11.00
2019,05,27,05,00,11.00
2019,05,27,05,01,11.00
2019,05,27,05,02,11.00
2019,05,27,05,03,11.00
2019,05,27,05,04,11.00
2019,05,27,05,05,11.00
2019,05,27,05,06,11.00
2019,05,27,05,07,11.00
2019,05,27,05,08,11.00
2019,05,27,05,09,11.00
2019,05,27,05,10,11.00
2019,05,27,05,11,11.00
2019,05,27,05,12,11.00
2019,05,27,05,13,11.00
2019,05,27,05,14,11.00
2019,05,27,05,15,11.00
2019,05,27,05,16,11.00
2019,05,27,05,17,11.00
2019,05,27,05,18,11.00
2019,05,27,05,19,11.00
2019,05,27,05,20,11.00
2019,05,27,05,21,11.00
2019,05,27,05,22,11.00
2019,05,27,05,23,11.00
2019,05,27,05,24,11.00
2019,05,27,05,25,11.00
2019,05,27,05,26,11.00
2019,05,27,05,27,11.00
2019,05,27,05,28,11.00
2019,05,27,05,29,11.00
2019,05,27,05,30,11.00
2019,05,27,05,31,11.00
2019,05,27,05,32,11.00
2019,05,27,05,33,11.00
2019,05,27,05,34,11.00
2019,05,27,05,35,11.00
2019,05,27,05,36,11.00
2019,05,27,05,37,11.00
2019,05,27,05,38,11.00
2019,05,27,05,39,11.00
2019,05,27,05,40,11.00
2019,05,27,05,41,11.00
2019,05,27,05,42,11.00
2019,05,27,05,43,11.00
2019,05,27,05,44,11.00
2019,05,27,05,45,11.10
2019,05,27,05,46,11.10
2019,05,27,05,47,11.10
2019,05,27,05,48,11.10
2019,05,27,05,49,11.10
2019,05,27,05,50,11.10
2019,05,27,05,51,11.10
2019,05,27,05,52,11.10
2019,05,27,05,53,11.10
2019,05,27,05,54,11.10
2019,05,27,05,55,11.20
2019,05,27,05,56,11.20
2019,05,27,05,57,11.20
2019,05,27,05,58,11.20
2019,05,27,05,59,11.20
2019,05,27,06,00,11.20
2019,05,27,06,01,11.20
2019,05,27,06,02,11.20
2019,05,27,06,03,11.30
2019,05,27,06,04,11.30
2019,05,27,06,05,11.30
2019,05,27,06,06,11.30
2019,05,27,06,07,11.30
2019,05,27,06,08,11.30
2019,05,27,06,09,11.30
2019,05,27,06,10,11.30
2019,05,27,06,11,11.40
2019,05,27,06,12,11.40
2019,05,27,06,13,11.40
2019,05,27,06,14,11.40
2019,05,27,06,15,11.50
2019,05,27,06,16,11.50
2019,05,27,06,17,11.50
2019,05,27,06,18,11.60
2019,05,27,06,19,11.60
2019,05,27,06,20,11.60
2019,05,27,06,21,11.60
2019,05,27,06,22,11.70
2019,05,27,06,23,11.70
2019,05,27,06,24,11.70
2019,05,27,06,25,11.80
2019,05,27,06,26,11.80
2019,05,27,06,27,11.90
2019,05,27,06,28,11.90
2019,05,27,06,29,12.00
2019,05,27,06,30,12.00
2019,05,27,06,31,12.10
2019,05,27,06,32,12.10
2019,05,27,06,33,12.20
2019,05,27,06,34,12.20
2019,05,27,06,35,12.30
2019,05,27,06,36,12.30
2019,05,27,06,37,12.30
2019,05,27,06,38,12.40
2019,05,27,06,39,12.40
2019,05,27,06,40,12.40
2019,05,27,06,41,12.50
2019,05,27,06,42,12.50
2019,05,27,06,43,12.60
2019,05,27,06,44,12.70
2019,05,27,06,45,12.70
2019,05,27,06,46,12.80
2019,05,27,06,47,12.80
2019,05,27,06,48,12.80
2019,05,27,06,49,12.90
2019,05,27,06,50,12.90
2019,05,27,06,51,12.90
2019,05,27,06,52,12.90
2019,05,27,06,53,13.00
2019,05,27,06,54,13.00
2019,05,27,06,55,13.00
2019,05,27,06,56,13.10
2019,05,27,06,57,13.10
2019,05,27,06,58,13.10
2019,05,27,06,59,13.20
2019,05,27,07,00,13.20
2019,05,27,07,01,13.20
2019,05,27,07,02,13.30
2019,05,27,07,03,13.30
2019,05,27,07,04,13.30
2019,05,27,07,05,13.30
2019,05,27,07,06,13.40
2019,05,27,07,07,13.40
2019,05,27,07,08,13.30
2019,05,27,07,09,13.30
2019,05,27,07,10,13.30
2019,05,27,07,11,13.20
2019,05,27,07,12,13.20
2019,05,27,07,13,13.20
2019,05,27,07,14,13.20
2019,05,27,07,15,13.20
2019,05,27,07,16,13.20
2019,05,27,07,17,13.10
2019,05,27,07,18,13.10
2019,05,27,07,19,13.10
2019,05,27,07,20,13.10
2019,05,27,07,21,13.10
2019,05,27,07,22,13.10
2019,05,27,07,23,13.10
2019,05,27,07,24,13.20
2019,05,27,07,25,13.20
2019,05,27,07,26,13.20
2019,05,27,07,27,13.20
2019,05,27,07,28,13.20
2019,05,27,07,29,13.20
2019,05,27,07,30,13.20
2019,05,27,07,31,13.30
2019,05,27,07,32,13.30
2019,05,27,07,33,13.30
2019,05,27,07,34,13.30
2019,05,27,07,35,13.30
2019,05,27,07,36,13.20
2019,05,27,07,37,13.20
2019,05,27,07,38,13.20
2019,05,27,07,39,13.20
2019,05,27,07,40,13.20
2019,05,27,07,41,13.20
2019,05,27,07,42,13.20
2019,05,27,07,43,13.20
2019,05,27,07,44,13.20
2019,05,27,07,45,13.20
2019,05,27,07,46,13.20
2019,05,27,07,47,13.20
2019,05,27,07,48,13.20
2019,05,27,07,49,13.20
2019,05,27,07,50,13.20
2019,05,27,07,51,13.20
2019,05,27,07,52,13.20
2019,05,27,07,53,13.20
2019,05,27,07,54,13.20
2019,05,27,07,55,13.20
2019,05,27,07,56,13.30
2019,05,27,07,57,13.40
2019,05,27,07,58,13.40
2019,05,27,07,59,13.40
2019,05,27,08,00,13.50
2019,05,27,08,01,13.60
2019,05,27,08,02,13.70
2019,05,27,08,03,13.80
2019,05,27,08,04,13.90
2019,05,27,08,05,14.00
2019,05,27,08,06,14.00
2019,05,27,08,07,14.10
2019,05,27,08,08,14.20
2019,05,27,08,09,14.30
2019,05,27,08,10,14.40
2019,05,27,08,11,14.50
2019,05,27,08,12,14.60
2019,05,27,08,13,14.70
2019,05,27,08,14,14.80
2019,05,27,08,15,14.90
2019,05,27,08,16,14.90
2019,05,27,08,17,15.00
2019,05,27,08,18,15.00
2019,05,27,08,19,15.10
2019,05,27,08,20,15.20
2019,05,27,08,21,15.30
2019,05,27,08,22,15.30
2019,05,27,08,23,15.40
2019,05,27,08,24,15.40
2019,05,27,08,25,15.50
2019,05,27,08,26,15.60
2019,05,27,08,27,15.60
2019,05,27,08,28,15.50
2019,05,27,08,29,15.40
2019,05,27,08,30,15.30
2019,05,27,08,31,15.10
2019,05,27,08,32,14.90
2019,05,27,08,33,14.70
2019,05,27,08,34,14.60
2019,05,27,08,35,14.50
2019,05,27,08,36,14.50
2019,05,27,08,37,14.40
2019,05,27,08,38,14.40
2019,05,27,08,39,14.30
2019,05,27,08,40,14.30
2019,05,27,08,41,14.20
2019,05,27,08,42,14.30
2019,05,27,08,43,14.30
2019,05,27,08,44,14.30
2019,05,27,08,45,14.40
2019,05,27,08,46,14.50
2019,05,27,08,47,14.70
2019,05,27,08,48,14.80
2019,05,27,08,49,14.90
2019,05,27,08,50,15.10
2019,05,27,08,51,15.20
2019,05,27,08,52,15.30
2019,05,27,08,53,15.40
2019,05,27,08,54,15.60
2019,05,27,08,55,15.70
2019,05,27,08,56,15.80
2019,05,27,08,57,15.90
2019,05,27,08,58,15.90
2019,05,27,08,59,16.00
2019,05,27,09,00,16.00
2019,05,27,09,01,16.00
2019,05,27,09,02,16.00
2019,05,27,09,03,16.00
2019,05,27,09,04,16.00
2019,05,27,09,05,15.90
2019,05,27,09,06,15.90
2019,05,27,09,07,15.90
2019,05,27,09,08,15.90
2019,05,27,09,09,15.90
2019,05,27,09,10,16.00
2019,05,27,09,11,16.00
2019,05,27,09,12,16.10
2019,05,27,09,13,16.10
2019,05,27,09,14,16.20
2019,05,27,09,15,16.20
2019,05,27,09,16,16.30
2019,05,27,09,17,16.30
2019,05,27,09,18,16.40
2019,05,27,09,19,16.40
2019,05,27,09,20,16.50
2019,05,27,09,21,16.50
2019,05,27,09,22,16.50
2019,05,27,09,23,16.50
2019,05,27,09,24,16.50
2019,05,27,09,25,16.60
2019,05,27,09,26,16.60
2019,05,27,09,27,16.60
2019,05,27,09,28,16.50
2019,05,27,09,29,16.50
2019,05,27,09,30,16.40
2019,05,27,09,31,16.40
2019,05,27,09,32,16.40
2019,05,27,09,33,16.40
2019,05,27,09,34,16.40
2019,05,27,09,35,16.40
2019,05,27,09,36,16.40
2019,05,27,09,37,16.30
2019,05,27,09,38,16.30
2019,05,27,09,39,16.20
2019,05,27,09,40,16.20
2019,05,27,09,41,16.20
2019,05,27,09,42,16.20
2019,05,27,09,43,16.20
2019,05,27,09,44,16.20
2019,05,27,09,45,16.20
2019,05,27,09,46,16.20
2019,05,27,09,47,16.20
2019,05,27,09,48,16.20
2019,05,27,09,49,16.30
2019,05,27,09,50,16.30
2019,05,27,09,51,16.30
2019,05,27,09,52,16.40
2019,05,27,09,53,16.50
2019,05,27,09,54,16.50
2019,05,27,09,55,16.60
2019,05,27,09,56,16.60
2019,05,27,09,57,16.70
2019,05,27,09,58,16.80
2019,05,27,09,59,16.80
2019,05,27,10,00,16.90
2019,05,27,10,01,17.00
2019,05,27,10,02,17.00
2019,05,27,10,03,17.10
2019,05,27,10,04,17.20
2019,05,27,10,05,17.20
2019,05,27,10,06,17.20
2019,05,27,10,07,17.20
2019,05,27,10,08,17.20
2019,05,27,10,09,17.20
2019,05,27,10,10,17.30
2019,05,27,10,11,17.30
2019,05,27,10,12,17.30
2019,05,27,10,13,17.20
2019,05,27,10,14,17.10
2019,05,27,10,15,17.00
2019,05,27,10,16,16.90
2019,05,27,10,17,16.70
2019,05,27,10,18,16.40
2019,05,27,10,19,16.10
2019,05,27,10,20,15.80
2019,05,27,10,21,15.50
2019,05,27,10,22,15.30
2019,05,27,10,23,15.20
2019,05,27,10,24,15.10
2019,05,27,10,25,15.00
2019,05,27,10,26,14.90
2019,05,27,10,27,14.80
2019,05,27,10,28,14.80
2019,05,27,10,29,14.80
2019,05,27,10,30,14.80
2019,05,27,10,31,14.80
2019,05,27,10,32,14.90
2019,05,27,10,33,14.90
2019,05,27,10,34,15.00
2019,05,27,10,35,15.00
2019,05,27,10,36,15.10
2019,05,27,10,37,15.10
2019,05,27,10,38,15.10
2019,05,27,10,39,15.10
2019,05,27,10,40,15.10
2019,05,27,10,41,15.10
2019,05,27,10,42,15.10
2019,05,27,10,43,15.00
2019,05,27,10,44,14.90
2019,05,27,10,45,15.00
2019,05,27,10,46,15.00
2019,05,27,10,47,15.10
2019,05,27,10,48,15.30
2019,05,27,10,49,15.30
2019,05,27,10,50,15.40
2019,05,27,10,51,15.40
2019,05,27,10,52,15.40
2019,05,27,10,53,15.50
2019,05,27,10,54,15.50
2019,05,27,10,55,15.60
2019,05,27,10,56,15.60
2019,05,27,10,57,15.50
2019,05,27,10,58,15.40
2019,05,27,10,59,15.40
2019,05,27,11,00,15.30
2019,05,27,11,01,15.20
2019,05,27,11,02,15.10
2019,05,27,11,03,15.10
2019,05,27,11,04,15.10
2019,05,27,11,05,15.20
2019,05,27,11,06,15.20
2019,05,27,11,07,15.20
2019,05,27,11,08,15.20
2019,05,27,11,09,15.20
2019,05,27,11,10,15.30
2019,05,27,11,11,15.30
2019,05,27,11,12,15.30
2019,05,27,11,13,15.30
2019,05,27,11,14,15.50
2019,05,27,11,15,15.70
2019,05,27,11,16,15.70
2019,05,27,11,17,15.80
2019,05,27,11,18,15.80
2019,05,27,11,19,15.90
2019,05,27,11,20,16.00
2019,05,27,11,21,16.00
2019,05,27,11,22,16.10
2019,05,27,11,23,16.10
2019,05,27,11,24,16.30
2019,05,27,11,25,16.30
2019,05,27,11,26,16.40
2019,05,27,11,27,16.40
2019,05,27,11,28,16.40
2019,05,27,11,29,16.30
2019,05,27,11,30,16.20
2019,05,27,11,31,16.10
2019,05,27,11,32,16.20
2019,05,27,11,33,16.30
2019,05,27,11,34,16.40
2019,05,27,11,35,16.50
2019,05,27,11,36,16.50
2019,05,27,11,37,16.60
2019,05,27,11,38,16.60
2019,05,27,11,39,16.60
2019,05,27,11,40,16.60
2019,05,27,11,41,16.70
2019,05,27,11,42,16.70
2019,05,27,11,43,16.60
2019,05,27,11,44,16.60
2019,05,27,11,45,16.70
2019,05,27,11,46,16.80
2019,05,27,11,47,16.90
2019,05,27,11,48,16.80
2019,05,27,11,49,16.80
2019,05,27,11,50,16.80
2019,05,27,11,51,16.80
2019,05,27,11,52,16.90
2019,05,27,11,53,16.90
2019,05,27,11,54,17.00
2019,05,27,11,55,17.10
2019,05,27,11,56,17.20
2019,05,27,11,57,17.30
2019,05,27,11,58,17.30
2019,05,27,11,59,17.40
2019,05,27,12,00,17.50
2019,05,27,12,01,17.60
2019,05,27,12,02,17.60
2019,05,27,12,03,17.60
2019,05,27,12,04,17.70
2019,05,27,12,05,17.80
2019,05,27,12,06,17.80
2019,05,27,12,07,17.80
2019,05,27,12,08,17.90
2019,05,27,12,09,17.90
2019,05,27,12,10,17.80
2019,05,27,12,11,17.80
2019,05,27,12,12,17.80
2019,05,27,12,13,17.70
2019,05,27,12,14,17.80
2019,05,27,12,15,17.80
2019,05,27,12,16,17.90
2019,05,27,12,17,17.90
2019,05,27,12,18,18.00
2019,05,27,12,19,18.00
2019,05,27,12,20,17.90
2019,05,27,12,21,17.80
2019,05,27,12,22,17.90
2019,05,27,12,23,17.90
2019,05,27,12,24,18.00
2019,05,27,12,25,18.00
2019,05,27,12,26,18.10
2019,05,27,12,27,18.10
2019,05,27,12,28,18.20
2019,05,27,12,29,18.30
2019,05,27,12,30,18.40
2019,05,27,12,31,18.30
2019,05,27,12,32,18.00
2019,05,27,12,33,17.80
2019,05,27,12,34,17.60
2019,05,27,12,35,17.50
2019,05,27,12,36,17.40
2019,05,27,12,37,17.50
2019,05,27,12,38,17.50
2019,05,27,12,39,17.60
2019,05,27,12,40,17.70
2019,05,27,12,41,17.70
2019,05,27,12,42,17.80
2019,05,27,12,43,17.80
2019,05,27,12,44,17.80
2019,05,27,12,45,17.70
2019,05,27,12,46,17.80
2019,05,27,12,47,18.00
2019,05,27,12,48,18.00
2019,05,27,12,49,18.10
2019,05,27,12,50,18.10
2019,05,27,12,51,18.10
2019,05,27,12,52,18.20
2019,05,27,12,53,18.20
2019,05,27,12,54,18.30
2019,05,27,12,55,18.40
2019,05,27,12,56,18.40
2019,05,27,12,57,18.30
2019,05,27,12,58,18.20
2019,05,27,12,59,18.10
2019,05,27,13,00,18.00
2019,05,27,13,01,17.90
2019,05,27,13,02,17.90
2019,05,27,13,03,17.80
2019,05,27,13,04,17.80
2019,05,27,13,05,17.70
2019,05,27,13,06,17.70
2019,05,27,13,07,17.60
2019,05,27,13,08,17.60
2019,05,27,13,09,17.60
2019,05,27,13,10,17.60
2019,05,27,13,11,17.70
2019,05,27,13,12,17.60
2019,05,27,13,13,17.30
2019,05,27,13,14,17.00
2019,05,27,13,15,16.70
2019,05,27,13,16,16.40
2019,05,27,13,17,16.20
2019,05,27,13,18,16.00
2019,05,27,13,19,16.00
2019,05,27,13,20,15.90
2019,05,27,13,21,15.80
2019,05,27,13,22,15.80
2019,05,27,13,23,15.80
2019,05,27,13,24,15.90
2019,05,27,13,25,16.00
2019,05,27,13,26,16.10
2019,05,27,13,27,16.20
2019,05,27,13,28,16.10
2019,05,27,13,29,16.00
2019,05,27,13,30,15.90
2019,05,27,13,31,15.80
2019,05,27,13,32,15.80
2019,05,27,13,33,15.80
2019,05,27,13,34,15.80
2019,05,27,13,35,15.70
2019,05,27,13,36,15.70
2019,05,27,13,37,15.70
2019,05,27,13,38,15.60
2019,05,27,13,39,15.40
2019,05,27,13,40,15.30
2019,05,27,13,41,15.20
2019,05,27,13,42,15.30
2019,05,27,13,43,15.40
2019,05,27,13,44,15.60
2019,05,27,13,45,15.80
2019,05,27,13,46,15.90
2019,05,27,13,47,16.20
2019,05,27,13,48,16.30
2019,05,27,13,49,16.40
2019,05,27,13,50,16.50
2019,05,27,13,51,16.50
2019,05,27,13,52,16.40
2019,05,27,13,53,16.30
2019,05,27,13,54,16.20
2019,05,27,13,55,16.20
2019,05,27,13,56,16.20
2019,05,27,13,57,16.40
2019,05,27,13,58,16.60
2019,05,27,13,59,16.70
2019,05,27,14,00,16.70
2019,05,27,14,01,16.70
2019,05,27,14,02,16.60
2019,05,27,14,03,16.50
2019,05,27,14,04,16.40
2019,05,27,14,05,16.40
2019,05,27,14,06,16.50
2019,05,27,14,07,16.60
2019,05,27,14,08,16.70
2019,05,27,14,09,16.90
2019,05,27,14,10,17.00
2019,05,27,14,11,17.10
2019,05,27,14,12,17.10
2019,05,27,14,13,17.10
2019,05,27,14,14,17.20
2019,05,27,14,15,17.30
2019,05,27,14,16,17.50
2019,05,27,14,17,17.60
2019,05,27,14,18,17.80
2019,05,27,14,19,17.90
2019,05,27,14,20,18.00
2019,05,27,14,21,18.20
2019,05,27,14,22,18.40
2019,05,27,14,23,18.60
2019,05,27,14,24,18.80
2019,05,27,14,25,19.00
2019,05,27,14,26,19.20
2019,05,27,14,27,19.30
2019,05,27,14,28,19.50
2019,05,27,14,29,19.60
2019,05,27,14,30,19.70
2019,05,27,14,31,19.70
2019,05,27,14,32,19.70
2019,05,27,14,33,19.70
2019,05,27,14,34,19.60
2019,05,27,14,35,19.60
2019,05,27,14,36,19.60
2019,05,27,14,37,19.60
2019,05,27,14,38,19.60
2019,05,27,14,39,19.60
2019,05,27,14,40,19.70
2019,05,27,14,41,19.70
2019,05,27,14,42,19.80
2019,05,27,14,43,19.90
2019,05,27,14,44,20.00
2019,05,27,14,45,20.10
2019,05,27,14,46,20.20
2019,05,27,14,47,20.10
2019,05,27,14,48,19.90
2019,05,27,14,49,19.80
2019,05,27,14,50,19.60
2019,05,27,14,51,19.40
2019,05,27,14,52,19.20
2019,05,27,14,53,19.10
2019,05,27,14,54,18.90
2019,05,27,14,55,18.80
2019,05,27,14,56,18.80
2019,05,27,14,57,18.70
2019,05,27,14,58,18.70
2019,05,27,14,59,18.70
2019,05,27,15,00,18.70
2019,05,27,15,01,18.80
2019,05,27,15,02,18.90
2019,05,27,15,03,18.90
2019,05,27,15,04,18.90
2019,05,27,15,05,18.90
2019,05,27,15,06,19.00
2019,05,27,15,07,19.10
2019,05,27,15,08,19.10
2019,05,27,15,09,19.10
2019,05,27,15,10,19.20
2019,05,27,15,11,19.30
2019,05,27,15,12,19.40
2019,05,27,15,13,19.50
2019,05,27,15,14,19.50
2019,05,27,15,15,19.60
2019,05,27,15,16,19.70
2019,05,27,15,17,19.70
2019,05,27,15,18,19.70
2019,05,27,15,19,19.70
2019,05,27,15,20,19.80
2019,05,27,15,21,19.80
2019,05,27,15,22,19.80
2019,05,27,15,23,19.90
2019,05,27,15,24,19.90
2019,05,27,15,25,20.00
2019,05,27,15,26,20.00
2019,05,27,15,27,20.00
2019,05,27,15,28,20.00
2019,05,27,15,29,20.10
2019,05,27,15,30,20.10
2019,05,27,15,31,20.00
2019,05,27,15,32,20.00
2019,05,27,15,33,19.90
2019,05,27,15,34,20.00
2019,05,27,15,35,19.90
2019,05,27,15,36,19.90
2019,05,27,15,37,19.90
2019,05,27,15,38,19.90
2019,05,27,15,39,19.90
2019,05,27,15,40,19.80
2019,05,27,15,41,19.80
2019,05,27,15,42,19.80
2019,05,27,15,43,19.90
2019,05,27,15,44,19.90
2019,05,27,15,45,19.90
2019,05,27,15,46,19.90
2019,05,27,15,47,19.80
2019,05,27,15,48,19.80
2019,05,27,15,49,19.70
2019,05,27,15,50,19.70
2019,05,27,15,51,19.60
2019,05,27,15,52,19.60
2019,05,27,15,53,19.60
2019,05,27,15,54,19.60
2019,05,27,15,55,19.60
2019,05,27,15,56,19.60
2019,05,27,15,57,19.70
2019,05,27,15,58,19.70
2019,05,27,15,59,19.60
2019,05,27,16,00,19.60
2019,05,27,16,01,19.60
2019,05,27,16,02,19.70
2019,05,27,16,03,19.80
2019,05,27,16,04,19.90
2019,05,27,16,05,20.00
2019,05,27,16,06,20.10
2019,05,27,16,07,20.10
2019,05,27,16,08,20.10
2019,05,27,16,09,20.10
2019,05,27,16,10,20.10
2019,05,27,16,11,19.90
2019,05,27,16,12,19.70
2019,05,27,16,13,19.40
2019,05,27,16,14,19.20
2019,05,27,16,15,18.90
2019,05,27,16,16,18.60
2019,05,27,16,17,18.30
2019,05,27,16,18,18.00
2019,05,27,16,19,17.70
2019,05,27,16,20,17.50
2019,05,27,16,21,17.40
2019,05,27,16,22,17.30
2019,05,27,16,23,17.10
2019,05,27,16,24,17.00
2019,05,27,16,25,17.00
2019,05,27,16,26,17.00
2019,05,27,16,27,17.00
2019,05,27,16,28,17.10
2019,05,27,16,29,17.20
2019,05,27,16,30,17.30
2019,05,27,16,31,17.50
2019,05,27,16,32,17.70
2019,05,27,16,33,17.90
2019,05,27,16,34,18.10
2019,05,27,16,35,18.30
2019,05,27,16,36,18.50
2019,05,27,16,37,18.70
2019,05,27,16,38,18.90
2019,05,27,16,39,19.10
2019,05,27,16,40,19.30
2019,05,27,16,41,19.50
2019,05,27,16,42,19.70
2019,05,27,16,43,19.80
2019,05,27,16,44,20.00
2019,05,27,16,45,20.20
2019,05,27,16,46,20.30
2019,05,27,16,47,20.50
2019,05,27,16,48,20.60
2019,05,27,16,49,20.70
2019,05,27,16,50,20.80
2019,05,27,16,51,20.90
2019,05,27,16,52,21.00
2019,05,27,16,53,21.00
2019,05,27,16,54,21.00
2019,05,27,16,55,21.10
2019,05,27,16,56,21.10
2019,05,27,16,57,21.10
2019,05,27,16,58,21.20
2019,05,27,16,59,21.30
2019,05,27,17,00,21.30
2019,05,27,17,01,21.30
2019,05,27,17,02,21.20
2019,05,27,17,03,21.20
2019,05,27,17,04,21.20
2019,05,27,17,05,21.20
2019,05,27,17,06,21.20
2019,05,27,17,07,21.20
2019,05,27,17,08,21.20
2019,05,27,17,09,21.10
2019,05,27,17,10,21.00
2019,05,27,17,11,20.70
2019,05,27,17,12,20.50
2019,05,27,17,13,20.10
2019,05,27,17,14,19.80
2019,05,27,17,15,19.60
2019,05,27,17,16,19.40
2019,05,27,17,17,19.20
2019,05,27,17,18,19.20
2019,05,27,17,19,19.10